Home   Weather   Brownsville   Past weeks

Flag for USA Past Weather in Brownsville, Texas, USA — Yesterday and Last 2 Weeks

61 °F


Feels Like: 61 °F
Forecast: 61 / 82 °F
Wind: 7 mph from Northwest

Location: Brownsville / South Padre Island International Airport

Current Time: Oct 22, 2016 at 7:01:28 AM

Latest Report: Oct 22, 2016 at 5:53 AM

Visibility: 10 mi

Pressure: 30.12 "Hg

Humidity: 81%

Dew Point: 55 °F

Location of BrownsvilleLocation

Past Weather in Brownsville — Graph


Brownsville Temperature Yesterday

Maximum temperature yesterday: 81 °F (at 3:53 PM)
Minimum temperature yesterday: 65 °F (at 11:53 PM)
Average temperature yesterday: 74 °F

High & Low Weather Summary for the Past Weeks

High95 °F (Oct 18, 1:53 PM)100% (Oct 12, 5:53 AM)30.16 "Hg (Oct 12, 5:53 AM)
Low61 °F (Oct 22, 3:53 AM)38% (Oct 11, 12:53 PM)29.79 "Hg (Oct 17, 4:53 PM)
Average80 °F74%30.00 "Hg
* Reported Oct 7 5:53 AM — Oct 22 5:53 AM, Brownsville, Weather by CustomWeather, © 2016

Note: Actual official high and low records may vary slightly from our data, if they occured in-between our weather recording intervals... More about our weather records


Brownsville Weather History for the Previous 24 Hours

Scroll right to see more
Time TempWeatherWind HumidityBarometerVisibility
5:53 AM
Sat, Oct 22
61 °FClear.7 mph81%30.12 "Hg10 mi
4:53 AM62 °FClear.7 mph80%30.12 "Hg10 mi
3:53 AM61 °FPassing clouds.No wind81%30.13 "Hg10 mi
2:53 AM62 °FPassing clouds.5 mph80%30.13 "Hg10 mi
1:53 AM63 °FClear.6 mph75%30.14 "Hg10 mi
12:53 AM64 °FClear.6 mph73%30.14 "Hg10 mi
11:53 PM
Fri, Oct 21
65 °FClear.5 mph70%30.15 "Hg10 mi
10:53 PM66 °FClear.6 mph70%30.16 "Hg10 mi
9:53 PM68 °FClear.5 mph68%30.16 "Hg10 mi
8:53 PM70 °FClear.7 mph66%30.15 "Hg10 mi
7:53 PM71 °FClear.9 mph68%30.14 "Hg10 mi
6:53 PM74 °FSunny.10 mph62%30.13 "Hg10 mi
5:53 PM77 °FScattered clouds.12 mph58%30.11 "Hg10 mi
4:53 PM77 °FScattered clouds.14 mph60%30.10 "Hg10 mi
3:53 PM81 °FScattered clouds.16 mph56%30.10 "Hg10 mi
2:53 PM79 °FScattered clouds.17 mph58%30.10 "Hg10 mi
1:53 PM79 °FPartly sunny.17 mph60%30.11 "Hg10 mi
12:53 PM78 °FOvercast.14 mph66%30.14 "Hg10 mi
11:53 AM76 °FOvercast.13 mph74%30.16 "Hg10 mi
10:53 AM73 °FMostly cloudy.9 mph69%30.16 "Hg10 mi
10:01 AM70 °FMostly cloudy.13 mph71%30.16 "Hg10 mi
8:53 AM70 °FPartly sunny.9 mph76%30.14 "Hg10 mi
7:53 AM74 °FMostly cloudy.10 mph76%30.11 "Hg10 mi
Weather by CustomWeather, © 2016

See weather overviewHow to use our weather pages